Location: McFarlands Corners
(41.4117°N, 81.3382°W)
Time: 01:10:16
(UTC+00:00)

A-11 Canister half - All Passes

Search period start: 05 November 2024 00:00
Search period end: 15 November 2024 00:00
Orbit: 1525 x 1683 km, 47.3° (Epoch: 04 November)

Date Brightness Start Highest point End Pass type
(mag) Time Alt. Az. Time Alt. Az. Time Alt. Az.
05 Nov - 02:19:00 10° SE 02:22:07 12° ESE 02:25:12 10° ESE night (unlit)
05 Nov - 04:16:10 10° SSW 04:25:26 49° SE 04:34:26 10° ENE night (unlit)
05 Nov - 06:20:26 10° WSW 06:30:12 78° NNW 06:39:40 10° ENE visible
05 Nov - 08:26:36 10° WNW 08:36:04 62° N 08:45:18 10° E visible
05 Nov - 10:32:14 10° WNW 10:41:43 90° SW 10:51:02 10° ESE visible
05 Nov - 12:37:49 10° WNW 12:45:57 35° SW 12:54:03 10° SSE daylight
06 Nov - 01:58:27 10° SE 02:00:25 11° ESE 02:02:24 10° ESE night (unlit)
06 Nov - 03:54:29 10° SSW 04:03:42 46° SE 04:12:38 10° ENE night (unlit)
06 Nov - 05:58:36 10° WSW 06:08:23 80° NNW 06:17:53 10° ENE visible
06 Nov - 08:04:45 10° WNW 08:14:14 61° N 08:23:30 10° E visible
06 Nov - 10:10:26 10° WNW 10:19:56 88° NNE 10:29:15 10° ESE visible
06 Nov - 12:15:58 10° WNW 12:24:14 37° SW 12:32:29 10° SSE daylight
07 Nov - 03:32:48 10° SSW 03:41:57 44° SE 03:50:49 10° ENE night (unlit)
07 Nov - 05:36:45 10° WSW 05:46:35 82° NNW 05:56:07 10° ENE visible
07 Nov - 07:42:53 10° W 07:52:25 61° N 08:01:40 10° E visible
07 Nov - 09:48:38 10° WNW 09:58:09 85° NNE 10:07:29 10° ESE visible
07 Nov - 11:54:07 10° WNW 12:02:32 39° SW 12:10:53 10° SSE daylight
08 Nov - 03:11:09 10° SSW 03:20:12 42° SE 03:29:00 10° ENE night (unlit)
08 Nov - 05:14:55 10° WSW 05:24:46 84° NNW 05:34:19 10° ENE visible
08 Nov - 07:21:02 10° W 07:30:35 61° N 07:39:51 10° E visible
08 Nov - 09:26:49 10° WNW 09:36:21 83° NNE 09:45:42 10° ESE visible
08 Nov - 11:32:16 10° WNW 11:40:49 41° SW 11:49:17 10° SSE visible
09 Nov - 02:49:30 10° SSW 02:58:28 40° SE 03:07:10 10° ENE night (unlit)
09 Nov - 04:53:04 10° WSW 05:02:58 86° NNW 05:12:32 10° ENE night (unlit)
09 Nov - 06:59:10 10° W 07:08:45 61° N 07:18:03 10° E visible
09 Nov - 09:05:01 10° WNW 09:14:34 81° NNE 09:23:54 10° ESE visible
09 Nov - 11:10:26 10° WNW 11:19:06 44° SW 11:27:40 10° SSE visible
10 Nov - 02:27:51 10° SSW 02:36:43 38° SE 02:45:20 10° ENE visible
10 Nov - 04:31:15 10° WSW 04:41:10 89° NNW 04:50:46 10° ENE night (unlit)
10 Nov - 06:37:18 10° W 06:46:55 62° N 06:56:13 10° ENE visible
10 Nov - 08:43:11 10° WNW 08:52:47 79° NNE 09:02:07 10° ESE visible
10 Nov - 10:48:35 10° WNW 10:57:23 46° SW 11:06:02 10° SSE visible
11 Nov - 02:06:14 10° SSW 02:14:59 36° SE 02:23:30 10° ENE visible
11 Nov - 04:09:25 10° WSW 04:19:21 89° SSE 04:28:59 10° ENE night (unlit)
11 Nov - 06:15:26 10° W 06:25:04 62° N 06:34:25 10° ENE visible
11 Nov - 08:21:21 10° WNW 08:30:58 77° NNE 08:40:19 10° ESE visible
11 Nov - 10:26:46 10° WNW 10:35:39 48° SW 10:44:23 10° SSE visible
11 Nov - 12:36:27 10° WSW 12:38:47 11° WSW 12:41:07 10° SW daylight
12 Nov - 01:44:37 10° SSW 01:53:14 34° SE 02:01:39 10° ENE visible
12 Nov - 03:47:36 10° WSW 03:57:34 87° SSE 04:07:12 10° ENE night (unlit)
12 Nov - 05:53:34 10° W 06:03:14 62° N 06:12:36 10° ENE visible
12 Nov - 07:59:32 10° WNW 08:09:10 76° NNE 08:18:32 10° ESE visible
12 Nov - 10:04:56 10° WNW 10:13:55 51° SW 10:22:45 10° SSE visible
12 Nov - 12:13:48 10° W 12:17:07 12° WSW 12:20:26 10° SW daylight
13 Nov - 01:23:02 10° S 01:31:30 33° SE 01:39:46 10° ENE visible
13 Nov - 03:25:47 10° WSW 03:35:46 84° SSE 03:45:25 10° ENE visible
13 Nov - 05:31:40 10° W 05:41:24 63° N 05:50:48 10° ENE visible
13 Nov - 07:37:42 10° WNW 07:47:22 74° NNE 07:56:43 10° ESE visible
13 Nov - 09:43:06 10° WNW 09:52:11 53° SW 10:01:05 10° SSE visible
13 Nov - 11:51:25 10° W 11:55:27 14° WSW 11:59:28 10° SSW daylight
14 Nov - 01:01:27 10° S 01:09:46 31° SE 01:17:53 10° ENE visible
14 Nov - 03:03:58 10° SW 03:13:58 82° SSE 03:23:39 10° ENE visible
14 Nov - 05:09:48 10° W 05:19:33 63° N 05:28:59 10° ENE night (unlit)
14 Nov - 07:15:53 10° WNW 07:25:33 73° NNE 07:34:55 10° ESE visible
14 Nov - 09:21:17 10° WNW 09:30:27 56° SW 09:39:25 10° SE visible
14 Nov - 11:29:09 10° W 11:33:46 15° WSW 11:38:23 10° SSW visible
